Location: Recife
(8.0585°S, 34.8848°W)
Time: 12:47:52
(UTC-03:00)

Courier 1B - Pass Details

Date: 14 April 2026
Orbit: 962 x 1209 km, 28.3° (Epoch: 7 May)

Event Time Altitude Azimuth Distance (km) Brightness Sun altitude
Rises 08:08:43 0° 264° (W) 4,096 10.3 39.3°
Reaches altitude 10° 08:12:09 10° 252° (WSW) 3,143 9.8 40.1°
Maximum altitude 08:18:26 26° 198° (SSW) 2,183 9.3 41.5°
Drops below altitude 10° 08:24:41 10° 145° (SE) 3,113 10.4 43.0°
Sets 08:28:05 0° 132° (SE) 4,049 11.0 43.8°
